Regional Weather Roundup
Issued by NWS

Home | Current Version | Previous Version | Text Only | Print | Product List | Glossary On
Versions: 1 2 3 4 5 6 7 8 9 10 11 12 13 14 15 16 17 18 19 20 21 22 23 24 25 26 27 28 29 30 31 32 33 34 35 36 37 38 39 40 41 42 43 44 45 46 47 48 49 50
000
ASUS43 KDTX 261210
RWRMI
MICHIGAN HOURLY REGIONAL WEATHER ROUNDUP
NATIONAL WEATHER SERVICE DETROIT/PONTIAC MI
800 AM EDT FRI AUG 26 2016

NOTE: "FAIR" INDICATES FEW OR NO CLOUDS BELOW 12,000 FEET WITH NO
SIGNIFICANT WEATHER AND/OR OBSTRUCTION TO VISIBILITY.

MIZ047>049-052>055-059>063-066>070-074>076-081>083-261300-
SOUTHEAST LOWER MICHIGAN

CITY           SKY/WX    TMP DP  RH WIND       PRES   REMARKS
ADRIAN         SUNNY     62  61  96 CALM      30.14R
6HR MIN TEMP:  59; 6HR MAX TEMP:  67;

ALMA           MOSUNNY   61  61 100 CALM      30.12S FOG
ANN ARBOR      SUNNY     61  61 100 MISG      30.12S
BAD AXE        CLOUDY    62  61  96 CALM      30.10R
6HR MIN TEMP:  58; 6HR MAX TEMP:  62;

CARO           MOSUNNY   60  59  99 CALM      30.10R
DETROIT CITY   SUNNY     67  62  84 W3        30.12R
6HR MIN TEMP:  66; 6HR MAX TEMP:  71;

DETROIT        MOSUNNY   67  62  84 W3        30.12S
6HR MIN TEMP:  64; 6HR MAX TEMP:  68;

FLINT          MOSUNNY   65  61  87 W3        30.12R
6HR MIN TEMP:  63; 6HR MAX TEMP:  66;

GROSSE ILE     SUNNY     66  62  86 W3        30.11R
6HR MIN TEMP:  63; 6HR MAX TEMP:  70;

HILLSDALE      SUNNY     61  60  96 CALM      30.14S
6HR MIN TEMP:  51; 6HR MAX TEMP:  84;

HOWELL         MOSUNNY   63  62  96 W3        30.13R

CITY           SKY/WX    TMP DP  RH WIND       PRES   REMARKS
JACKSON        SUNNY     63  62  97 CALM      30.13S
6HR MIN TEMP:  60; 6HR MAX TEMP:  64;

LAMBERTVILLE   SUNNY     65  63  94 CALM      30.13S
6HR MIN TEMP:  62; 6HR MAX TEMP:  71;

LANSING        MOSUNNY   64  61  90 W3        30.13R
6HR MIN TEMP:  61; 6HR MAX TEMP:  64;

LAPEER         FAIR      62  61  96 CALM      30.11S
6HR MIN TEMP:  59; 6HR MAX TEMP:  64;

MASON          PTSUNNY   63  62  95 W3        30.14R
MONROE         SUNNY     62  62 100 CALM      30.12S
MT. CLEMENS    MOSUNNY   67  62  83 W7        30.09R
6HR MIN TEMP:  64; 6HR MAX TEMP:  70;

PONTIAC        PTSUNNY   64  61  90 W3        30.12R
6HR MIN TEMP:  62; 6HR MAX TEMP:  66;

PORT HURON     MOSUNNY   63  61  94 CALM      30.10S
TRI CITIES     MOSUNNY   62  61  96 W6        30.11R
6HR MIN TEMP:  60; 6HR MAX TEMP:  64;

MIDLAND        FAIR      59  59 100 CALM      30.10R
6HR MIN TEMP:  57; 6HR MAX TEMP:  61;

TROY           SUNNY     67  61  80 W7        30.13S
SAGINAW HB     CLOUDY    64  61  88 W5        30.10R
$$
MIZ043>046-050>051-056>058-064>065-071>073-077>080-261300-
SOUTHWEST LOWER MICHIGAN

CITY           SKY/WX    TMP DP  RH WIND       PRES   REMARKS
BATTLE CREEK   CLOUDY    63  63 100 CALM      30.15R
6HR MIN TEMP:  60; 6HR MAX TEMP:  63;

BENTON HARBOR  CLOUDY    64  61  90 CALM      30.14R
6HR MIN TEMP:  62; 6HR MAX TEMP:  64;

BIG RAPIDS     CLEAR     58  57  98 CALM      30.12R
6HR MIN TEMP:  56; 6HR MAX TEMP:  60;

COLDWATER      MOSUNNY   62  62 100 CALM      30.14S
6HR MIN TEMP:  58; 6HR MAX TEMP:  64;

FREMONT        FAIR      59  59  99 CALM      30.12S
HOLLAND        PTCLDY    63  61  93 CALM      30.13S
6HR MIN TEMP:  62; 6HR MAX TEMP:  66;

GRAND RAPIDS   CLOUDY    65  62  90 W5        30.13R
6HR MIN TEMP:  61; 6HR MAX TEMP:  65; 6HR PCP: TRACE;

IONIA          FAIR      62  61  96 SW3       30.12S
6HR MIN TEMP:  59; 6HR MAX TEMP:  62;

KALAMAZOO      CLOUDY    65  62  90 CALM      30.14S
6HR MIN TEMP:  60; 6HR MAX TEMP:  65;

LUDINGTON      PTCLDY    58  58  99 NW3       30.11S
6HR MIN TEMP:  58; 6HR MAX TEMP:  70;

MARSHALL       MOSUNNY   63  63 100 CALM      30.13S
MOUNT PLEASANT MOSUNNY   62  61  97 CALM      30.10S
6HR MIN TEMP:  60; 6HR MAX TEMP:  64;

MUSKEGON       PTCLDY    63  61  93 CALM      30.13R
6HR MIN TEMP:  62; 6HR MAX TEMP:  73;

SOUTH HAVEN    CLOUDY    63  63  99 CALM      30.14R
$$
MIZ016>042-261300-
NORTHERN LOWER MICHIGAN

CITY           SKY/WX    TMP DP  RH WIND       PRES   REMARKS
ALPENA         SUNNY     62  57  83 W3        30.08R
6HR MIN TEMP:  60; 6HR MAX TEMP:  65;

BEAVER ISLAND  SUNNY     64  58  82 W5        30.08R
6HR MIN TEMP:  61; 6HR MAX TEMP:  66;

BELLAIRE       SUNNY     57  56  97 CALM      30.09R
6HR MIN TEMP:  55; 6HR MAX TEMP:  61;

CADILLAC       FOG       57  56  95 CALM      30.11S VSB 1/4
CHARLEVOIX     MOSUNNY   66  58  75 W7        30.11R
FRANKFORT      CLEAR     58  56  92 CALM      30.11R
GAYLORD        SUNNY     58  54  86 CALM      30.10R
6HR MIN TEMP:  56; 6HR MAX TEMP:  65;

GRAYLING       MOSUNNY   56  55  98 CALM      30.11S
HARBOR SPRINGS SUNNY     59  57  92 CALM      30.08R
HOUGHTON LAKE  SUNNY     62  60  93 NW3       30.12R
6HR MIN TEMP:  59; 6HR MAX TEMP:  67;

MANISTEE       CLEAR     59  58  96 E3        30.11R
OSCODA         SUNNY     61  59  94 CALM      30.07R
6HR MIN TEMP:  57; 6HR MAX TEMP:  63;

PELLSTON       SUNNY     56  54  93 CALM      30.08R
6HR MIN TEMP:  52; 6HR MAX TEMP:  67;

ROGERS CITY    SUNNY     63  57  82 W5        30.08R
TRAVERSE CITY  PTCLDY    62  59  90 CALM      30.08R
6HR MIN TEMP:  60; 6HR MAX TEMP:  67;

$$
MIZ007>008-015-261300-
EASTERN UPPER MICHIGAN

CITY           SKY/WX    TMP DP  RH WIND       PRES   REMARKS
KINROSS        SUNNY     58  55  90 SW5       30.05R
6HR MIN TEMP:  56; 6HR MAX TEMP:  63;

MACKINAC ISLAN SUNNY     64  58  82 W6        30.06R
6HR MIN TEMP:  61; 6HR MAX TEMP:  64;

NEWBERRY       SUNNY     58  56  92 W9        30.06R
6HR MIN TEMP:  56; 6HR MAX TEMP:  62;

S. S. MARIE    CLOUDY    61  57  87 S7        30.03S
6HR MIN TEMP:  61; 6HR MAX TEMP:  65;

$$
MIZ004>006-011>014-085-261300-
CENTRAL UPPER MICHIGAN

CITY           SKY/WX    TMP DP  RH WIND       PRES   REMARKS
MANISTIQUE     CLEAR     59  55  89 NW7       30.06R
6HR MIN TEMP:  55; 6HR MAX TEMP:  62;

ESCANABA       CLEAR     55  54  96 W6        30.07S
6HR MIN TEMP:  54; 6HR MAX TEMP:  60;

MENOMINEE      PTCLDY   N/A N/A N/A CALM      30.11R
SAWYER-GWINN   CLEAR     54  52  94 CALM      30.07R
$$
MIZ001>003-009>011-084-261300-
WESTERN UPPER MICHIGAN

CITY           SKY/WX    TMP DP  RH WIND       PRES   REMARKS
IRON MOUNTAIN  CLEAR     53  50  89 CALM      30.09R
6HR MIN TEMP:  52; 6HR MAX TEMP:  59;

HOUGHTON       CLOUDY    60  54  80 N7        30.05R
6HR MIN TEMP:  60; 6HR MAX TEMP:  64; 6HR PCP: TRACE;

COPPER HARBOR    N/A     63  58  83 NE9       30.04
6HR MIN TEMP:  63; 6HR MAX TEMP:  65;

IRONWOOD       CLOUDY    56  54  93 W9        30.12R
6HR MIN TEMP:  54; 6HR MAX TEMP:  57;

$$

ABBREVIATIONS USED IN REMARKS
   TC - TEMPERATURE IN CELSIUS
  WCI - WIND CHILL INDEX
   HX - HEAT INDEX
  VSB - VISIBILITY





USA.gov is the U.S. government's official web portal to all federal, state and local government web resources and services.